www.pogodaiklimat.ru

Погода и климат >> Архив погоды >> Казахстан >> Опорная


ПОГОДА в Опорной

  • Прогноз погоды в Опорной
  • Монитор погоды в Опорной

АРХИВ ПОГОДЫ в Опорной

Время (UTC), дата Ветер
(напр.,м/с)
 
Видим.   Явления Облачность Т
(С)
Тd
(С)
f
(%)
Тe
(С)
Тes
(С)
Комфортность P
(гПа)
Po
(гПа)
Тmin
(С)
Tmax
(С)
R
(мм)
R24
(мм)
S
(см)
21 19.05 СВ 1 н/о 6/0
[Ci sp]
+18.3 +2.5 35 +20 +20 1010.0
00 20.05 штиль 0 н/о 4/0
[Ac lent]
+14.6 +6.1 57 +14 +14 1009.6
03 20.05 штиль 0 50 км 6/0
[Ci ing]
+16.9 +5.5 47 +17 +20 1010.0
06 20.05 С 6 50 км 8/0
[Ci ing]
+23.2 +2.1 25 +23 +27 комфорт 1010.8 +1.3
09 20.05 С 6 50 км 8/4 1000 м
[Cu hum Ci ing]
+24.7 -0.5 19 +23 +27 комфорт 1011.0
12 20.05 З 8 50 км 4/0
[Ci ing]
+24.8 -1.2 18 +23 +25 комфорт 1011.4
15 20.05 ЮЗ 4 н/о ясно +12.5 -3.1 34 +11 +11 1016.0
18 20.05 СЗ 5 н/о ясно +16.7 -4.1 24 +16 +16 1014.6 +25.5
21 20.05 ЮЗ 4 н/о ясно +12.5 -3.1 34 +11 +11 1016.0
00 21.05 С 3 н/о ясно +9.9 -2.5 42 +8 +8 1016.6
03 21.05 С 3 50 км 3/0
[Ac trans]
+11.2 -2.7 38 +10 +12 1018.2
06 21.05 50 км н/о +16.2 -3.3 26 +15 +19 1019.7 +0.9
09 21.05 С 8 50 км ясно +18.0 -4.4 21 +17 +20 1020.0
12 21.05 С 8 н/о ясно +18.8 -5.0 19 +18 +20 1020.2 +19.1
15 21.05 С 6 50 км ясно +16.5 -4.8 23 +16 +16 1020.6 +19.1
18 21.05 С 3 н/о ясно +16.0 -4.1 25 +16 +16 1022.5 +1.9
21 21.05 С 1 50 км ясно +10.5 -1.4 43 +11 +11 1023.9
00 22.05 С 1 н/о ясно +9.2 -3.0 42 +9 +9 1023.1
03 22.05 С 1 50 км ясно +10.5 -1.4 43 +11 +14 1023.9
06 22.05 штиль 0 50 км ясно +18.0 -4.4 21 +18 +37 опасность
простуды
1024.4 +9.0
09 22.05 ЮВ 1 50 км 3/0
[Ci fib]
+20.4 -4.4 18 +21 +41 комфорт 1023.3
12 22.05 штиль 0 50 км ясно +22.2 -5.4 15 +21 +33 комфорт 1021.5
15 22.05 штиль 0 50 км 8/0
[Ci ing]
+21.8 -5.4 16 +21 +21 комфорт 1020.8 +22.6
18 22.05 штиль 0 н/о 3/0
[Ac lent]
+18.0 -4.4 21 +18 +18 1021.2 +2.2
21 22.05 ЮВ 1 н/о ясно +15.3 -3.0 28 +16 +16 1021.7
00 23.05 штиль 0 н/о 5/0
[Ac lent]
+13.6 -1.4 35 +14 +14 1020.6
03 23.05 ЮВ 3 50 км 6/0
[Ci fib]
+15.3 -3.0 28 +15 +17 1019.3
06 23.05 ЮВ 6 50 км 8/0
[Ci ing]
+22.2 -5.4 15 +21 +25 комфорт 1017.6 +1.3
09 23.05 ЮВ 7 50 км 8/0
[Ac und]
+24.6 -6.0 13 +22 +25 комфорт 1015.7
12 23.05 Ю 5 50 км 9/0
[Ci ing]
+25.5 -6.7 11 +23 +27 комфорт 1013.4
15 23.05 З 8 50 км 9/8 600 м
[Cb cap Ci ing]
+21.5 +8.6 44 +23 +23 комфорт 1012.4 +25.8
18 23.05 З 4 н/о 10/10 1000 м
[Sc]
+17.9 +8.1 53 +18 +18 1012.6 +2.5
21 23.05 В 3 н/о слаб. ливневой дождь 9/9 600 м
[Cb cap]
+17.4 +8.9 57 +17 +17 1011.2
00 24.05 В 3 н/о 9/9 600 м
[Cb cap Ci sp]
+16.9 +7.6 54 +17 +17 1009.2
03 24.05 В 3 50 км 9/9 600 м
[Cb cap]
+17.3 +7.8 54 +17 +18 1007.7
06 24.05 З 3 50 км 8/3 1000 м
[Cb calv Ac trans]
+20.8 +5.0 36 +22 +27 комфорт 1007.3 +1.6 0.0
12 24.05 З 8 50 км 6/6 1000 м
[Cu med, cong]
+23.6 +4.8 30 +23 +24 комфорт 1006.8
15 24.05 З 1 н/о ясно +13.7 +9.4 75 +14 +15 1011.1
18 24.05 З 3 н/о ясно +18.2 +9.9 58 +19 +19 1010.6 +24.2
21 24.05 З 1 н/о ясно +13.7 +9.4 75 +14 +14 1011.1
00 25.05 З 1 50 км н/о +14.2 +9.7 74 +15 +15 1012.0 +14.1
03 25.05 СЗ 2 50 км 8/8 600 м
[Cu med, cong]
+27.9 +7.4 27 +27 +28 жарко 1014.7
06 25.05 З 4 50 км 8/8 600 м
[Cu med, cong]
+29.0 +7.7 26 +28 +30 жарко 1014.1
09 25.05 СЗ 2 50 км 8/8 600 м
[Cu med, cong]
+27.9 +7.4 27 +27 +31 жарко 1014.7
12 25.05 З 4 50 км 8/8 600 м
[Cu med, cong]
+29.0 +7.7 26 +28 +29 жарко 1014.1
15 25.05 В 1 н/о 6/0
[Ac lent]
+22.0 +11.0 50 +24 +24 комфорт 1015.9
18 25.05 штиль 0 н/о 6/0
[Ci sp]
+24.5 +10.7 42 +26 +26 жарко 1015.3 +2.9
21 25.05 В 1 н/о 6/0
[Ac lent]
+22.0 +11.0 50 +24 +24 комфорт 1015.9
00 26.05 ЮВ 3 н/о 6/0
[Ci sp]
+18.5 +6.7 46 +19 +19 1015.3
03 26.05 ЮВ 5 50 км 8/0
[Ac trans]
+21.0 +2.9 30 +21 +22 комфорт 1016.2
06 26.05 ЮВ 5 50 км 9/0
[Ac trans Ci ing]
+27.7 +5.3 24 +27 +31 жарко 1015.8 +1.8
12 26.05 В 4 50 км 9/9 600 м
[Cb cap]
+28.1 +5.5 24 +27 +28 жарко 1014.6

 

Местоположение метеостанции Опорная (Мангистауская область, Казахстан): широта 46.13 долгота 54.58 высота над уровнем моря -4 м.

В архиве по умолчанию представлена погода в Опорной за последнюю неделю. Архивные данные за месяц целиком и за предыдущие месяцы, начиная с января 2011 года, Вы можете получить, выбрав интересующий диапазон дат из раскрывающегося списка и нажав кнопку "Ввод!".


*Определитесь, кто Вы:
робот инопланетянин человек

Внимание! Время в таблицах - всемирное. Для получения местного времени необходимо прибавить поправку, которая равна 4 ч.

Смотрите также архив погоды в соседних городах и на ближайших метеорологических станциях:

Погода в Кульсары (Атырауская область, Казахстан) (90 км)
Погода в Бейнеу (Мангистауская область, Казахстан) (102 км)
Погода в Саме (Мангистауская область, Казахстан) (144 км)
Погода в Макате (Атырауская область, Казахстан) (194 км)
Погода в Каракалпакии (Каракалпакстан, Узбекистан) (197 км)
Погода в Сай-Утесе (Мангистауская область, Казахстан) (218 км)
Погода в Атырау (Атырауская область, Казахстан) (231 км)
Погода в Сагизе (Атырауская область, Казахстан) (232 км)
Погода в Кызане (Мангистауская область, Казахстан) (256 км)
Погода в Махамбете (Атырауская область, Казахстан) (285 км)

Пояснения к столбцам:

Ветер - указаны скорость ветра в м/с - средняя за 10 мин, порывы в срок и между сроками (в фигурных скобках) и направление, откуда дует ветер: С - северный, СВ - северо-восточный, В - восточный, ЮВ - юго-восточный, Ю - южный, ЮЗ - юго-западный, З - западный, СЗ - северо-западный.
Видимость - горизонтальная дальность видимости в метрах или километрах. При видимости от 1 до 10 км при отсутствии осадков обычно наблюдается дымка, при ухудшении видимости до 1 км и менее - туман. В сухую погоду видимость может ухудшаться дымом, пылью или мглою.
Явления - указаны атмосферные явления, наблюдавшиеся в срок или в последний час перед сроком; фигурными скобками обозначены явления, наблюдавшиеся между сроками (за 1-3 часа до срока); квадратными скобками обозначены град или гололедные отложения с указанием их диаметра в мм.
Облачность - указаны через наклонную черту общая и нижняя облачность в баллах и высота нижней границы облаков в метрах; квадратными скобками обозначены формы облаков: Ci - перистые, Cs - перисто-слоистые, Cc - перисто-кучевые, Ac - высококучевые, As - высокослоистые, Sc - слоисто-кучевые, Ns - слоисто-дождевые, Cu - кучевые, Cb - кучево-дождевые. Подробнее классификацию облаков см. в Атласе облаков (PDF).
T - Температура воздуха - температура, измеренная на высоте 2 м над землей.
Td - Температура точки росы - температура, при понижении до которой содержащийся в воздухе водяной пар достигнет насыщения.
f - Относительная влажность воздуха - влажноcть воздуха, измеренная на высоте 2 м над землей.
Te - Эффективная температура - температура, которую ощущает одетый по сезону человек в тени. Характеристика душности погоды. При расчете учитывается влияние влажности воздуха и скорости ветра на теплоощущения человека.
Tes - Эффективная температура на солнце - температура, которую ощущает человек, с поправкой на солнечный нагрев. Характеристика знойности погоды. Зависит от высоты солнца над горизонтом, облачности и скорости ветра. Ночью, в пасмурную погоду, а также при ветре 12 м/с и более поправка равна нулю.
P - Атмосферное давление - приведенное к уровню моря атмосферное давление.
Po - Атмосферное давление - измеренное на уровне метеостанции атмосферное давление.
Tmin - Минимальная температура - минимум температуры воздуха на высоте 2 м над землей.
Tmax - Максимальная температура - максимум температуры воздуха на высоте 2 м над землей.
R - Количество осадков - Количество выпавших осадков за период времени, мм. При наведении курсора мыши на число - период времени, за который выпало указанное количество осадков.
R24 - Количество осадков - Количество выпавших осадков за 24 часа, мм.
S - Снежный покров - Высота снежного покрова, см. При наведении курсора мыши на число - состояние снежного покрова и степень покрытия местности в баллах.